Latest Weather Observations for Rhyll

IDV60901

Issued at 5:11 am EST Saturday 1 August 2015 (issued every 10 minutes, with the page automatically refreshed every 10 minutes)

About weather observations | Map of Melbourne area stations | Latest observations for Melbourne area | Other Formats
Station Details ID: 086373 Name: RHYLL Lat: -38.46 Lon: 145.31 Height: 13.4 m
Data from the previous 72 hours. | See also: Recent months at Rhyll
Date/Time
EST
Tmp

°C
App
Tmp
°C
Dew
Point
°C
Rel
Hum
%
Delta-T

°C
Wind Press
QNH
hPa
Press
MSL
hPa
Rain
since
9 am
mm
Dir
 
Spd
km/h
Gust
km/h
Spd
kts
Gust
kts
01/05:00am 12.1 4.8 7.2 72 2.4 NNW 35 50 19 27 1006.7 1006.7 0.2
01/04:38am 11.9 3.4 7.0 72 2.3 NNW 41 63 22 34 1006.6 1006.6 0.2
01/04:30am 12.0 3.5 6.9 71 2.4 NNW 41 54 22 29 1006.6 1006.6 0.2
01/04:00am 12.1 4.4 7.0 71 2.5 NNW 37 56 20 30 1007.0 1007.0 0.2
01/03:30am 11.2 4.5 5.5 68 2.6 N 30 37 16 20 1007.9 1007.9 0.2
01/03:00am 11.0 2.8 4.9 66 2.8 NNW 37 46 20 25 1008.3 1008.3 0.2
01/02:30am 10.7 2.9 5.0 68 2.6 NNW 35 46 19 25 1009.0 1009.0 0.2
01/02:00am 10.7 1.2 5.0 68 2.6 NNW 44 59 24 32 1009.2 1009.2 0.2
01/01:30am 10.8 -0.7 4.5 65 2.8 NNW 54 70 29 38 1009.3 1009.3 0.2
01/01:22am 10.7 -0.4 4.6 66 2.7 NNW 52 70 28 38 1009.3 1009.3 0.2
01/01:00am 10.7 0.0 4.8 67 2.7 N 50 61 27 33 1009.8 1009.8 0.2
01/12:30am 10.9 -0.3 4.1 63 3.0 NNW 52 65 28 35 1010.7 1010.7 0.2
01/12:00am 10.9 -0.2 4.4 64 2.9 NNW 52 65 28 35 1011.4 1011.4 0.2
 
Date/Time
EST
Tmp

°C
App
Tmp
°C
Dew
Point
°C
Rel
Hum
%
Delta-T

°C
Wind Press
QNH
hPa
Press
MSL
hPa
Rain
since
9 am
mm
Dir
 
Spd
km/h
Gust
km/h
Spd
kts
Gust
kts
31/11:30pm 10.7 0.0 4.8 67 2.7 NNW 50 70 27 38 1012.0 1012.0 0.2
31/11:00pm 10.4 0.9 5.0 69 2.4 NNW 44 63 24 34 1012.5 1012.5 0.2
31/10:58pm 10.5 1.3 5.3 70 2.4 NNW 43 63 23 34 1012.6 1012.6 0.2
31/10:30pm 10.4 2.8 5.6 72 2.2 NNW 35 50 19 27 1013.2 1013.2 0.2
31/10:00pm 10.5 2.4 5.1 69 2.5 NNW 37 59 20 32 1013.9 1013.9 0.2
31/09:41pm 10.3 3.2 5.5 72 2.2 NNW 32 54 17 29 1013.9 1013.9 0.2
31/09:30pm 10.2 3.4 5.2 71 2.3 NNW 30 43 16 23 1014.3 1014.3 0.2
31/09:00pm 10.2 5.4 4.8 69 2.4 NNW 19 32 10 17 1014.8 1014.8 0.2
31/08:30pm 10.3 5.0 5.1 70 2.4 NNW 22 32 12 17 1015.0 1015.0 0.2
31/08:00pm 10.6 3.2 4.9 68 2.6 NNW 33 43 18 23 1014.5 1014.5 0.2
31/07:30pm 10.6 2.9 5.2 69 2.5 N 35 46 19 25 1014.5 1014.5 0.2
31/07:00pm 10.6 4.3 5.8 72 2.2 NNW 28 33 15 18 1015.3 1015.3 0.2
31/06:59pm 10.5 4.2 5.7 72 2.2 NNW 28 33 15 18 1015.3 1015.3 0.2
31/06:30pm 9.4 6.7 5.8 78 1.6 N 9 15 5 8 1015.5 1015.5 0.2
31/06:00pm 7.7 6.2 5.2 84 1.1 NW 2 6 1 3 1015.6 1015.6 0.2
31/05:30pm 9.3 7.0 5.7 78 1.6 NNW 7 9 4 5 1015.4 1015.4 0.2
31/05:00pm 10.0 8.0 4.4 68 2.5 NNW 4 7 2 4 1015.4 1015.4 0.2
31/04:30pm 10.6 8.1 3.9 63 3.0 NNW 6 11 3 6 1015.5 1015.5 0.2
31/04:00pm 11.1 8.1 3.9 61 3.2 NNW 9 15 5 8 1015.9 1015.9 0.2
31/03:30pm 11.3 8.2 3.8 60 3.3 NW 9 17 5 9 1016.3 1016.3 0.2
31/03:00pm 11.6 8.6 4.3 61 3.3 NNW 9 19 5 10 1016.8 1016.8 0.2
31/02:30pm 11.4 7.9 3.7 59 3.4 NNW 11 17 6 9 1017.2 1017.2 0.2
31/02:00pm 11.2 7.4 3.7 60 3.3 NNW 13 22 7 12 1017.5 1017.5 0.2
31/01:30pm 11.4 8.4 4.2 61 3.2 NW 9 17 5 9 1018.0 1018.0 0.2
31/01:00pm 11.1 8.6 4.8 65 2.8 NW 7 15 4 8 1018.8 1018.8 0.0
31/12:30pm 10.2 6.3 5.4 72 2.2 NNW 15 20 8 11 1019.6 1019.6 0.0
31/12:00pm 10.6 6.5 6.4 75 2.0 NNW 17 24 9 13 1020.1 1020.1 0.0
31/11:30am 10.2 6.4 6.0 75 1.9 NNW 15 22 8 12 1020.7 1020.7 0.0
31/11:00am 10.0 6.3 6.3 78 1.7 NW 15 24 8 13 1021.1 1021.1 0.0
31/10:30am 9.7 5.7 6.8 82 1.4 NNW 17 24 9 13 1021.0 1021.0 0.0
31/10:00am 9.5 6.3 6.9 84 1.2 NNW 13 20 7 11 1020.7 1020.7 0.0
31/09:30am 8.8 4.9 6.9 88 0.9 NNW 17 22 9 12 1020.8 1020.8 0.0
31/09:00am 7.9 4.2 6.2 89 0.8 NNW 15 20 8 11 1020.6 1020.6 5.2
31/08:30am 7.3 4.4 6.4 94 0.4 N 11 19 6 10 1020.5 1020.5 5.2
31/08:00am 7.0 5.0 6.1 94 0.4 NW 6 9 3 5 1020.2 1020.2 5.2
31/07:30am 6.8 5.1 5.9 94 0.4 NW 4 7 2 4 1019.7 1019.7 5.2
31/07:00am 6.9 5.2 6.0 94 0.4 WNW 4 9 2 5 1019.4 1019.4 5.2
31/06:30am 7.2 5.3 6.5 95 0.3 WNW 6 9 3 5 1019.2 1019.2 5.2
31/06:00am 7.5 5.5 6.4 93 0.5 WNW 6 9 3 5 1018.9 1018.9 5.2
31/05:30am 7.9 6.0 6.7 92 0.6 WNW 6 9 3 5 1018.8 1018.8 5.2
31/05:00am 7.9 6.4 6.8 93 0.5 WNW 4 11 2 6 1018.8 1018.8 5.2
31/04:30am 8.0 6.5 6.8 92 0.6 WNW 4 7 2 4 1018.3 1018.3 5.2
31/04:00am 7.7 5.6 6.0 89 0.8 WNW 6 9 3 5 1018.1 1018.1 5.2
31/03:30am 7.5 5.3 5.5 87 0.9 W 6 11 3 6 1018.0 1018.0 5.2
31/03:00am 8.1 6.1 7.0 93 0.5 WNW 7 17 4 9 1018.1 1018.1 5.2
31/02:30am 7.8 6.3 6.7 93 0.5 WNW 4 7 2 4 1018.3 1018.3 5.2
31/02:00am 8.3 6.5 7.2 93 0.5 NW 6 11 3 6 1018.2 1018.2 5.2
31/01:30am 8.4 6.5 6.7 89 0.8 W 6 9 3 5 1017.9 1017.9 4.4
31/01:00am 8.6 6.5 6.6 87 0.9 W 7 13 4 7 1017.8 1017.8 4.0
31/12:30am 8.8 5.5 6.3 84 1.1 WSW 13 22 7 12 1017.7 1017.7 4.0
31/12:00am 8.6 6.1 6.7 88 0.9 W 9 17 5 9 1017.4 1017.4 4.0
 
Date/Time
EST
Tmp

°C
App
Tmp
°C
Dew
Point
°C
Rel
Hum
%
Delta-T

°C
Wind Press
QNH
hPa
Press
MSL
hPa
Rain
since
9 am
mm
Dir
 
Spd
km/h
Gust
km/h
Spd
kts
Gust
kts
30/11:30pm 8.5 6.3 6.3 86 1.0 WNW 7 15 4 8 1017.1 1017.1 4.0
30/11:00pm 9.0 6.6 7.0 87 0.9 WNW 9 17 5 9 1017.0 1017.0 3.8
30/10:30pm 9.0 6.2 7.1 88 0.9 W 11 20 6 11 1016.7 1016.7 3.8
30/10:00pm 9.2 6.3 8.1 93 0.5 W 13 20 7 11 1016.2 1016.2 3.8
30/09:30pm 9.0 6.1 8.2 95 0.4 WNW 13 22 7 12 1015.6 1015.6 3.8
30/09:00pm 9.3 6.0 8.1 92 0.6 WNW 15 35 8 19 1015.5 1015.5 1.6
30/08:30pm 9.6 2.4 7.5 87 1.0 NNW 35 57 19 31 1014.1 1014.1 0.2
30/08:00pm 9.9 2.5 6.8 81 1.5 NNW 35 57 19 31 1013.6 1013.6 0.0
30/07:30pm 9.9 1.5 7.2 83 1.3 NNW 41 63 22 34 1013.0 1013.0 0.0
30/07:02pm 10.5 1.9 6.5 76 1.9 NNW 41 59 22 32 1012.7 1012.7 0.0
30/07:00pm 10.5 1.5 6.3 75 2.0 NNW 43 59 23 32 1012.7 1012.7 0.0
30/06:30pm 10.7 0.6 5.9 72 2.2 NNW 48 70 26 38 1011.9 1011.9 0.0
30/06:01pm 10.5 1.5 6.3 75 2.0 NNW 43 61 23 33 1011.7 1011.7 0.0
30/06:00pm 10.5 1.3 6.3 75 2.0 NNW 44 61 24 33 1011.8 1011.8 0.0
30/05:30pm 11.2 1.0 5.1 66 2.8 NNW 48 69 26 37 1011.2 1011.2 0.0
30/05:00pm 11.5 1.2 4.7 63 3.1 NNW 48 69 26 37 1010.8 1010.8 0.0
30/04:31pm 11.4 0.3 4.6 63 3.1 NNW 52 72 28 39 1010.4 1010.4 0.0
30/04:30pm 11.3 0.2 4.7 64 3.0 NNW 52 69 28 37 1010.4 1010.4 0.0
30/04:00pm 10.9 -0.5 5.0 67 2.7 NNW 54 69 29 37 1010.9 1010.9 0.0
30/03:30pm 10.7 -0.1 5.9 72 2.2 NNW 52 72 28 39 1011.6 1011.6 0.0
30/03:00pm 11.2 -0.1 5.5 68 2.6 NNW 54 76 29 41 1012.1 1012.1 0.0
30/02:35pm 11.3 1.1 5.4 67 2.7 NNW 48 69 26 37 1012.7 1012.7 0.0
30/02:30pm 11.3 1.1 5.4 67 2.7 NNW 48 61 26 33 1012.8 1012.8 0.0
30/02:10pm 11.4 1.7 5.9 69 2.6 NNW 46 65 25 35 1012.9 1012.9 0.0
30/02:00pm 11.4 0.8 5.3 66 2.8 NNW 50 67 27 36 1012.9 1012.9 0.0
30/01:30pm 11.4 -0.5 5.1 65 2.9 NNW 57 78 31 42 1013.1 1013.1 0.0
30/01:00pm 11.8 1.9 4.8 62 3.2 N 46 65 25 35 1014.0 1014.0 0.0
30/12:36pm 11.7 1.8 4.9 63 3.1 NNW 46 67 25 36 1015.0 1015.0 0.0
30/12:30pm 11.7 1.6 5.6 66 2.8 NNW 48 67 26 36 1015.4 1015.4 0.0
30/12:10pm 11.2 -0.2 5.1 66 2.8 NNW 54 72 29 39 1015.6 1015.6 0.0
30/12:00pm 11.1 0.6 5.4 68 2.6 NNW 50 65 27 35 1015.7 1015.7 0.0
30/11:36am 11.2 0.6 4.9 65 2.9 N 50 69 27 37 1016.6 1016.6 0.0
30/11:30am 11.2 0.9 4.9 65 2.9 N 48 65 26 35 1017.0 1017.0 0.0
30/11:00am 11.2 2.3 4.9 65 2.9 N 41 59 22 32 1018.0 1018.0 0.0
30/10:33am 11.1 0.9 5.2 67 2.7 N 48 67 26 36 1018.4 1018.4 0.0
30/10:30am 10.8 0.5 4.9 67 2.7 N 48 61 26 33 1018.4 1018.4 0.0
30/10:00am 10.9 1.5 5.4 69 2.5 NNW 44 56 24 30 1018.9 1018.9 0.0
30/09:30am 10.4 1.9 5.2 70 2.4 NNW 39 54 21 29 1019.0 1019.0 0.0
30/09:27am 10.3 2.5 5.1 70 2.4 NNW 35 54 19 29 1018.8 1018.8 0.0
30/09:00am 9.8 2.6 5.2 73 2.1 NNW 32 44 17 24 1019.7 1019.7 0.0
30/08:30am 9.5 2.4 5.3 75 1.9 NNW 32 43 17 23 1019.9 1019.9 0.0
30/08:00am 9.3 2.2 5.3 76 1.8 NNW 32 41 17 22 1020.0 1020.0 0.0
30/07:30am 8.9 2.9 5.5 79 1.5 N 26 35 14 19 1020.2 1020.2 0.0
30/07:00am 8.7 2.6 4.9 77 1.7 NNW 26 35 14 19 1020.4 1020.4 0.0
30/06:30am 8.1 2.8 5.0 81 1.4 NNW 22 28 12 15 1020.7 1020.7 0.0
30/06:00am 8.5 2.4 4.9 78 1.6 NNW 26 33 14 18 1021.0 1021.0 0.0
30/05:30am 8.3 2.3 5.1 80 1.4 NNW 26 33 14 18 1021.2 1021.2 0.0
30/05:00am 8.0 3.1 4.9 81 1.4 NNW 20 26 11 14 1021.7 1021.7 0.0
30/04:30am 7.7 3.3 5.0 83 1.2 N 17 22 9 12 1022.0 1022.0 0.0
30/04:00am 8.1 2.1 5.4 83 1.2 N 26 32 14 17 1022.0 1022.0 0.0
30/03:30am 7.9 2.3 5.2 83 1.2 NNW 24 30 13 16 1022.5 1022.5 0.0
30/03:00am 8.0 2.8 5.3 83 1.2 NNW 22 28 12 15 1023.1 1023.1 0.0
30/02:30am 8.4 3.2 5.5 82 1.3 N 22 28 12 15 1023.6 1023.6 0.0
30/02:00am 8.3 3.1 5.6 83 1.2 N 22 28 12 15 1024.0 1024.0 0.0
30/01:30am 8.6 3.0 5.5 81 1.4 NNW 24 32 13 17 1024.6 1024.6 0.0
30/01:00am 8.8 4.1 5.9 82 1.3 N 20 26 11 14 1024.7 1024.7 0.0
30/12:30am 9.1 4.0 6.0 81 1.4 N 22 26 12 14 1025.4 1025.4 0.0
30/12:00am 9.3 4.6 6.2 81 1.4 N 20 26 11 14 1026.0 1026.0 0.0
 
Date/Time
EST
Tmp

°C
App
Tmp
°C
Dew
Point
°C
Rel
Hum
%
Delta-T

°C
Wind Press
QNH
hPa
Press
MSL
hPa
Rain
since
9 am
mm
Dir
 
Spd
km/h
Gust
km/h
Spd
kts
Gust
kts
29/11:30pm 9.2 4.5 5.9 80 1.5 N 20 26 11 14 1026.4 1026.4 0.0
29/11:00pm 9.6 4.5 6.0 78 1.6 N 22 28 12 15 1026.6 1026.6 0.0
29/10:30pm 9.8 5.0 5.8 76 1.8 N 20 26 11 14 1026.7 1026.7 0.0
29/10:00pm 10.1 4.6 6.1 76 1.8 N 24 30 13 16 1027.1 1027.1 0.0
29/09:30pm 10.2 3.6 6.0 75 1.9 N 30 37 16 20 1027.1 1027.1 0.0
29/09:00pm 10.2 3.9 5.8 74 2.0 N 28 35 15 19 1027.3 1027.3 0.0
29/08:30pm 10.2 3.9 5.6 73 2.1 N 28 32 15 17 1027.4 1027.4 0.0
29/08:00pm 10.2 4.2 5.4 72 2.2 N 26 32 14 17 1027.3 1027.3 0.0
29/07:30pm 10.1 5.2 5.3 72 2.2 N 20 26 11 14 1027.6 1027.6 0.0
29/07:00pm 10.4 5.8 5.8 73 2.1 N 19 22 10 12 1027.5 1027.5 0.0
29/06:30pm 10.4 6.5 5.4 71 2.3 N 15 19 8 10 1027.6 1027.6 0.0
29/06:00pm 10.7 7.4 6.3 74 2.0 NNW 13 17 7 9 1027.8 1027.8 0.0
29/05:30pm 11.0 6.9 6.2 72 2.2 NNW 17 20 9 11 1027.7 1027.7 0.0
29/05:00pm 11.0 6.9 6.4 73 2.1 NNW 17 22 9 12 1027.6 1027.6 0.0
29/04:30pm 11.3 5.9 6.2 71 2.4 NNW 24 30 13 16 1027.6 1027.6 0.0
29/04:00pm 11.7 7.0 6.0 68 2.6 NNW 20 28 11 15 1028.0 1028.0 0.0
29/03:30pm 11.9 9.9 6.4 69 2.6 NNW 6 9 3 5 1028.4 1028.4 0.0
29/03:00pm 11.8 9.6 6.1 68 2.7 NNW 7 13 4 7 1028.6 1028.6 0.0
29/02:30pm 12.1 9.8 5.7 65 3.0 NW 7 15 4 8 1028.9 1028.9 0.0
29/02:00pm 12.3 9.6 5.7 64 3.1 NW 9 17 5 9 1029.3 1029.3 0.0
29/01:30pm 12.6 9.0 5.1 60 3.5 NNW 13 20 7 11 1029.7 1029.7 0.0
29/01:00pm 12.4 9.4 6.0 65 3.0 NNW 11 19 6 10 1029.9 1029.9 0.0
29/12:30pm 12.4 8.4 5.1 61 3.4 NW 15 24 8 13 1030.6 1030.6 0.0
29/12:00pm 12.2 9.0 6.7 69 2.6 NNW 13 19 7 10 1031.4 1031.4 0.0
29/11:30am 12.0 8.6 7.7 75 2.1 NNW 15 19 8 10 1031.8 1031.8 0.0
29/11:00am 11.3 8.8 8.2 81 1.5 NNW 11 15 6 8 1032.1 1032.1 0.0
29/10:30am 11.1 7.9 8.3 83 1.4 NNW 15 19 8 10 1032.5 1032.5 0.0
29/10:00am 10.5 7.3 8.4 87 1.0 NNW 15 20 8 11 1032.6 1032.6 0.0
29/09:30am 10.2 8.2 8.5 89 0.8 NNW 9 13 5 7 1032.8 1032.8 0.0
29/09:00am 10.0 8.4 8.6 91 0.7 NNW 7 11 4 6 1032.8 1032.8 0.4
29/08:30am 9.0 8.3 8.7 98 0.1 NNW 2 6 1 3 1033.0 1033.0 0.4
29/08:00am 7.8 6.8 7.4 97 0.2 NW 2 6 1 3 1032.8 1032.8 0.4
29/07:30am 8.1 6.8 7.7 97 0.2 NNW 4 6 2 3 1032.6 1032.6 0.4
29/07:00am 8.4 6.8 7.8 96 0.3 NNW 6 7 3 4 1032.6 1032.6 0.4
29/06:30am 8.3 6.6 7.4 94 0.4 NNW 6 7 3 4 1032.5 1032.5 0.4
29/06:00am 8.7 7.4 7.6 93 0.5 NNW 4 7 2 4 1032.5 1032.5 0.4
29/05:30am 9.3 7.7 8.2 93 0.5 NNW 6 7 3 4 1032.2 1032.2 0.4

Latest Capital City Observations: Canberra | Sydney | Melbourne | Brisbane | Adelaide | Perth | Hobart | Darwin

Other Formats:

Comma delimited format used in spreadsheet applications
http://www.bom.gov.au/fwo/IDV60901/IDV60901.94892.axf

JavaScript Object Notation format (JSON) in row-major order
http://www.bom.gov.au/fwo/IDV60901/IDV60901.94892.json